Regional Weather Roundup
Issued by NWS

Home | Current Version | Previous Version | Graphics & Text | Print | Product List | Glossary On
Versions: 1 2 3 4 5 6 7 8 9 10 11 12 13 14 15 16 17 18 19 20 21 22 23 24 25 26 27 28 29 30 31 32 33 34 35 36 37 38 39 40 41 42 43 44 45 46 47 48 49 50
000
ASUS43 KMPX 202210
RWRMN
WEATHER ROUNDUP FOR MINNESOTA
NATIONAL WEATHER SERVICE TWIN CITIES/CHANHASSEN MN
500 PM CDT FRI OCT 20 2017


NOTE: "FAIR" INDICATES FEW OR NO CLOUDS BELOW 12,000 FEET WITH NO
SIGNIFICANT WEATHER AND/OR OBSTRUCTIONS TO VISIBILITY. N/A MEANS
CURRENT SKY AND/OR WEATHER CONDITIONS ARE NOT AVAILABLE.

MNZ060>063-068>070-202300-
   Twin Cities Metro

CITY           SKY/WX    TMP DP  RH WIND       PRES   REMARKS
TWIN CITIES    PTSUNNY   77  48  35 S15G25    29.73F
ST PAUL        MOSUNNY   73  49  42 SE14G23   29.74F
CRYSTAL        MOSUNNY   75  46  35 S15G24    29.71F
BLAINE         PTSUNNY   77  46  33 S15G29    29.72F
LAKEVILLE      PTSUNNY   75  46  35 S13G22    29.74F
EDEN PRAIRIE   MOSUNNY   76  46  34 S20G25    29.71F
SOUTH ST PAUL  MOSUNNY   75  45  33 S12G18    29.74F
LAKE ELMO      FAIR      72  48  43 SE13G18   29.76F
$$
MNZ001>005-007-008-013>017-022>024-027-028-202300-
   Northwest Minnesota

CITY           SKY/WX    TMP DP  RH WIND       PRES   REMARKS
BEMIDJI        MOSUNNY   73  51  45 S16G25    29.54F
HALLOCK        MOSUNNY   75  52  43 S29       29.37S
ROSEAU         SUNNY     81  50  34 S26G32    29.42F
WARROAD        SUNNY     77  54  44 SE18      29.45F
THIEF RVR FALL SUNNY     75  51  43 S26G32    29.46F
CROOKSTON      MOSUNNY   73  52  46 S24G31    29.43S
FOSSTON        SUNNY     75  48  38 S23G29    29.48F
DETROIT LAKES  SUNNY     73  52  46 S15G29    29.54S
MOORHEAD       MOSUNNY   75  52  43 S21G39    29.45F
PARK RAPIDS    SUNNY     74  52  46 S24G35    29.57F
MAHNOMEN       FAIR      73  53  48 S23G32    29.48S
$$
MNZ006-009>011-018-025>026-202300-
   North Central Minnesota

CITY           SKY/WX    TMP DP  RH WIND       PRES   REMARKS
BAUDETTE       SUNNY     75  48  38 S17G33    29.51F
FLAG ISLAND    SUNNY     61  48  63 SE20      29.45F
INTL FALLS     SUNNY     75  46  35 S9G21     29.58S
WASKISH        PTSUNNY   75  50  41 SE10G17   29.54S
BIG FORK       MOSUNNY   72  48  43 S12G18    29.61F
LONGVILLE      MOSUNNY   73  48  40 S17G29      N/A
GRAND RAPIDS   MOSUNNY   72  50  45 S22G29    29.66F
CRANE LAKE     SUNNY     73  45  35 S10G21    29.66S
ORR            MOSUNNY   73  43  33 S15G22    29.62S
COOK           MOSUNNY   72  48  43 S8G18     29.67S
WALKER         FAIR      74  50  43 S21G29    29.57F
$$
MNZ012-019>021-037-202300-
   Northeast Minnesota

CITY           SKY/WX    TMP DP  RH WIND       PRES   REMARKS
DULUTH         PTSUNNY   71  48  43 S14       29.73F
ELY            CLEAR     72  43  35 S14       29.70S
HIBBING        MOSUNNY   71  48  43 S9G20     29.67F
EVELETH        MOSUNNY   73  32  22 S10G20    29.70F
DULUTH HARBOR  CLOUDY    57  54  88 NE8       29.73S
TWO HARBORS    PTSUNNY   64  54  68 NE5       29.73S
SILVER BAY     PTCLDY    63  50  63 CALM      29.73F
GRAND MARAIS     N/A     53  49  86 NE6       29.77S
G MARAIS ARPRT CLEAR     63  45  51 S6        29.80S
$$
MNZ029>031-032-039>041-046>048-054>057-064-202300-
   West Central Minnesota

CITY           SKY/WX    TMP DP  RH WIND       PRES   REMARKS
FERGUS FALLS   SUNNY     75  54  46 S21G26    29.52S
WHEATON        SUNNY     75  52  43 S18G25    29.51F
MORRIS         SUNNY     75  52  43 S21G26    29.55F
ALEXANDRIA     SUNNY     76  50  40 S23G35    29.60F
ELBOW LAKE     FAIR      74  53  48 S21G36    29.55S
WADENA         SUNNY     73  52  46 S21G32    29.57F
GLENWOOD       SUNNY     75  52  43 S25G32    29.61F
APPLETON       SUNNY     75  50  41 S15G28    29.56F
BENSON         SUNNY     79  50  36 SW28G36   29.59F
ORTONVILLE     MOSUNNY   73  54  49 N15G23    29.54F
MADISON        MOSUNNY   77  54  44 S17G26    29.56F
WILLMAR        FAIR      79  52  38 S15G22    29.64S
$$
MNZ033>034-036-042>043-049>051-058-059-202300-
   Central Minnesota

CITY           SKY/WX    TMP DP  RH WIND       PRES   REMARKS
ST CLOUD       SUNNY     75  51  43 S17G36    29.66F
SAUK CENTRE    FAIR      75  52  44 S17G28    29.62F
PAYNESVILLE    SUNNY     76  50  39 S16G29    29.65S
AITKIN         MOSUNNY   72  48  43 S16G26    29.64F
PINE RIVER     CLOUDY    72  50  46 S14G35    29.65F
BRAINERD       SUNNY     73  49  42 S20G32    29.64F
STAPLES        SUNNY     73  46  38 S20G28    29.60F
LONG PRAIRIE   FAIR      73  52  46 SE22G33   29.62F
LITTLE FALLS   SUNNY     73  41  31 SE17G28   29.65F
LITCHFIELD     SUNNY     77  50  38 S9G17     29.67F
BUFFALO        SUNNY     75  46  34 SE14G21   29.70F
MAPLE LAKE     SUNNY     76  50  39 S12G20    29.70S
HUTCHINSON     MOSUNNY   76  50  38 S17G30    29.69F
$$
MNZ037-044-045-052-053-202300-
   East Central Minnesota

CITY           SKY/WX    TMP DP  RH WIND       PRES   REMARKS
PRINCETON      SUNNY     77  48  36 SE18G25   29.69F
MORA           SUNNY     73  48  40 S10G20    29.72F
CAMBRIDGE      SUNNY     79  55  44 S15       29.71F
RUSH CITY      SUNNY     74  47  39 S15G21    29.73F
MOOSE LAKE     MOSUNNY   73  45  35 S9G17     29.69F
HINCKLEY       FAIR      73  50  43 S12G18    29.73S
CLOQUET        MOSUNNY   73  41  31 SE10G21   29.72S
MCGREGOR       MOSUNNY   75  46  35 S23G30    29.68S
$$
MNZ071>073-080-081-089-090-097-098-202300-
   Southwest Minnesota

CITY           SKY/WX    TMP DP  RH WIND       PRES   REMARKS
MONTEVIDEO     SUNNY     75  52  43 SW15G24   29.59S
GRANITE FALLS  SUNNY     78  54  42 S22G33    29.62S
CANBY          PTSUNNY   76  53  44 S22G32    29.57F
MARSHALL       SUNNY     77  53  43 S30G37    29.58F
REDWOOD FALLS  SUNNY     77  50  38 S30G43    29.63F
OLIVIA         SUNNY     75  50  41 S22G31    29.64S
PIPESTONE      SUNNY     73  54  49 S22G30    29.62F
WORTHINGTON    SUNNY     75  53  46 S14G32    29.67F
JACKSON        SUNNY     73  50  43 S23G32    29.72F
TRACY          SUNNY     76  54  46 S20G35    29.63F
SLAYTON        SUNNY     74  53  48 S20G31    29.66F
$$
MNZ065>067-074>077-082>085-091>093-202300-
   South Central Minnesota

CITY           SKY/WX    TMP DP  RH WIND       PRES   REMARKS
MANKATO        SUNNY     75  48  38 S17G25    29.73F
NEW ULM        SUNNY     75  46  35 S25G33    29.69S
ST JAMES       SUNNY     73  48  40 S24G33    29.71F
FAIRMONT       SUNNY     74  50  42 S28G38    29.72S
GLENCOE        SUNNY     77  47  35 S14G24    29.69F
FARIBAULT      CLOUDY    75  46  35 SE16G26   29.77S
OWATONNA       MOSUNNY   73  48  40 S18G25    29.77F
WASECA         SUNNY     73  46  38 S17G25    29.77F
$$
MNZ078>079-086>088-094>096-202300-
   Southeast Minnesota

CITY           SKY/WX    TMP DP  RH WIND       PRES   REMARKS
ROCHESTER      MOSUNNY   72  43  35 S25G37    29.83F
RED WING       CLOUDY    75  37  25 S13G22    29.77F
STANTON        CLOUDY    76  43  30 S15G23    29.75F
DODGE CENTER   MOSUNNY   73  39  29 S23G29    29.81S
WINONA         MOSUNNY   73  43  33 S3        29.85F
AUSTIN         MOSUNNY   72  45  37 S18G26    29.82S
PRESTON        CLOUDY    71  43  37 S16G28    29.87S
$$
ABBREVIATIONS USED IN REMARKS
   TC - TEMPERATURES IN CELSIUS
  WCI - WIND CHILL INDEX
   HX - HEAT INDEX
  VSB - VISIBILITY
$$




USA.gov is the U.S. government's official web portal to all federal, state and local government web resources and services.